Regional Weather Roundup
Issued by NWS

Home | Current Version | Previous Version | Graphics & Text | Print | Product List | Glossary On
Versions: 1 2 3 4 5 6 7 8 9 10 11 12 13 14 15 16 17 18 19 20 21 22 23 24 25 26 27 28 29 30 31 32 33 34 35 36 37 38 39 40 41 42 43 44 45 46 47 48 49 50
000
ASUS43 KFSD 282210
RWRSD

WEATHER ROUNDUP FOR SOUTH DAKOTA
NATIONAL WEATHER SERVICE SIOUX FALLS SD
500 PM CDT SAT MAY 28 2016

NOTE: "FAIR" INDICATES FEW OR NO CLOUDS BELOW 12,000 FEET WITH NO
SIGNIFICANT WEATHER AND/OR OBSTRUCTIONS TO VISIBILITY.


SDZ001>005-009-010-012>017-282300-
NORTHWEST AND NORTH CENTRAL SOUTH DAKOTA

CITY           SKY/WX    TMP DP  RH WIND       PRES   REMARKS
BUFFALO          N/A     68  51  54 SE9       29.85S
FAITH            N/A     62  52  69 W10       29.90R
MOBRIDGE       MOSUNNY   75  49  39 N5        29.83R
$$

SDZ012>016-024>037-041>051-057-063-072>074-282300-
SOUTHWEST AND SOUTH CENTRAL SOUTH DAKOTA

CITY           SKY/WX    TMP DP  RH WIND       PRES   REMARKS
RAPID CTY ARPT CLOUDY    63  52  67 W7        29.94S
PIERRE         MOSUNNY   74  54  49 NE8       29.84S
CUSTER         CLOUDY    53  45  74 NE7       30.02R
ELLSWORTH AFB  CLOUDY    63  52  67 SW7       29.93S
PHILIP         SUNNY     71  49  45 SW5       29.87F
PINE RIDGE     CLOUDY    72  44  36 N9        29.91S
WINNER         FAIR      74  54  49 NW15      29.88R
$$

SDZ004>011-016>023-039-040-282300-
NORTHEAST SOUTH DAKOTA

CITY           SKY/WX    TMP DP  RH WIND       PRES   REMARKS
ABERDEEN       CLOUDY    68  59  73 NE8       29.84R
WATERTOWN      CLOUDY    65  58  78 N7        29.82S
BROOKINGS      CLOUDY    64  58  80 N7        29.81S
SISSETON         N/A     69  54  58 N7        29.79S
$$

SDZ017-020-022-023-036>040-048>070-282300-
SOUTHEAST SOUTH DAKOTA

CITY           SKY/WX    TMP DP  RH WIND       PRES   REMARKS
SIOUX FALLS    RAIN      63  61  93 NE5       29.78S FOG
HURON          CLOUDY    66  60  81 N12       29.83S
CHAMBERLAIN    CLOUDY    70  62  76 NE6       29.87R
MITCHELL       RAIN      61  59  93 NW12      29.86R FOG
YANKTON        CLOUDY    63  57  82 NW15G23   29.81R
$$

ABBREVIATIONS USED IN REMARKS
   TC - TEMPERATURE IN CELSIUS
  WCI - WIND CHILL INDEX
   HX - HEAT INDEX
  VSB - VISIBILITY





USA.gov is the U.S. government's official web portal to all federal, state and local government web resources and services.